Location: Unspecified
(0.0000°N, 0.0000°E)
Time: 02:37:56
(UTC+00:00)

QAEM 100 R/B - Visible Passes

Search period start: 04 November 2024 00:00
Search period end: 14 November 2024 00:00
Orbit: 540 x 559 km, 64.1° (Epoch: 03 November)

Date Brightness Start Highest point End Pass type
(mag) Time Alt. Az. Time Alt. Az. Time Alt. Az.
08 Nov ? 19:05:26 10° NNW 19:09:28 63° ENE 19:09:56 57° ESE visible
09 Nov ? 19:00:19 10° NNW 19:04:24 86° WSW 19:08:29 10° SSE visible
10 Nov ? 18:55:17 10° NNW 18:59:19 56° WSW 19:03:18 10° S visible
11 Nov ? 18:50:22 10° NW 18:54:10 37° WSW 18:57:58 10° S visible
12 Nov ? 18:45:36 10° NW 18:49:00 26° WSW 18:52:26 10° S visible
13 Nov ? 05:06:03 10° SE 05:08:13 14° ESE 05:10:24 10° E visible
13 Nov ? 18:41:01 10° WNW 18:43:50 18° WSW 18:46:38 10° SSW visible
